Regional Weather Roundup
Issued by NWS Northern Indiana

Home | Current Version | Previous Version | Text Only | Print | Product List | Glossary Off
Versions: 1 2 3 4 5 6 7 8 9 10 11 12 13 14 15 16 17 18 19 20 21 22 23 24 25 26 27 28 29 30 31 32 33 34 35 36 37 38 39 40 41 42 43 44 45 46 47 48 49 50

000
ASUS43 KIWX 231910
RWRIWX

KIWX WEATHER ROUNDUP
NATIONAL WEATHER SERVICE NORTHERN INDIANA
300 PM EDT WED AUG 23 2017

NOTE: "FAIR" INDICATES FEW OR NO CLOUDS BELOW 12,000 FEET WITH NO
SIGNIFICANT WEATHER AND/OR OBSTRUCTIONS TO VISIBILITY.

* THESE STATIONS ARE NOT UNDER NWS QUALITY CONTROL. THEY ALSO MAY NOT
  REPORT WEATHER SUCH AS PRECIPITATION OR FOG.

INZ001>027-232000-
NORTHERN INDIANA

CITY           SKY/WX    TMP DP  RH WIND       PRES   REMARKS
GARY*          MOSUNNY   73  55  53 NE8       30.05S
VALPARAISO     SUNNY     76  57  51 N10       30.04F
MICHIGAN CITY* SUNNY     72  54  53 N10       30.05S
LAPORTE*       SUNNY     73  52  48 NW9G18    30.04S
KNOX*          SUNNY     73  54  49 N10       30.03S
SOUTH BEND     MOSUNNY   71  53  52 NW14      30.03S
ELKHART*       MOSUNNY   73  50  43 NW12      30.02S
GOSHEN         MOSUNNY   75  50  41 NW16      30.01F
MONTICELLO*    MOSUNNY   73  51  45 NW10      30.03F
LOGANSPORT*    MOSUNNY   70  52  52 W5        30.04F
ROCHESTER*     SUNNY     77  50  38 NW9       30.03F
WARSAW*        MOSUNNY   72  52  49 NW14G20   30.02F
AUBURN*        MOSUNNY   73  52  46 W9G17     30.01S
FORT WAYNE     PTSUNNY   76  55  48 W12       30.01F
HUNTINGTON*    PTSUNNY   74  52  46 NW7       30.02S
PERU/GRISSOM   MOSUNNY   74  52  46 NW13      30.02F
MARION*        MOSUNNY   73  55  53 NW7       30.04S

$$
INZ028>050-232000-
CENTRAL INDIANA

CITY           SKY/WX    TMP DP  RH WIND       PRES   REMARKS
LAFAYETTE      MOSUNNY   75  52  44 NW10      30.04F
KOKOMO*        MOSUNNY   74  53  48 N8        30.04F
MUNCIE*        MOSUNNY   77  51  40 NW10      30.03F
INDIANAPOLIS   PTSUNNY   78  50  37 N10G18    30.04F

$$
MIZ043>046-050>051-056>058-064>065-071>073-077>080-232000-
SOUTHWEST LOWER MICHIGAN

CITY           SKY/WX    TMP DP  RH WIND       PRES   REMARKS
BATTLE CREEK   PTSUNNY   73  52  47 NW15      30.00S
BENTON HARBOR  MOSUNNY   72  53  51 NW12G22   30.04R
COLDWATER*     MOSUNNY   74  49  40 W9G17     29.99F
HILLSDALE*     MOSUNNY   73  48  40 W13G23    29.98F
HOLLAND        MOSUNNY   70  54  56 NW10G20   30.03R
GRAND RAPIDS   PTSUNNY   72  50  45 W10G21    29.98S
KALAMAZOO      MOSUNNY   75  48  38 W16G24    30.00F
STURGIS*       MOSUNNY   73  51  44 NW7G18    30.00S
THREE RIVERS*  FAIR      74  49  41 NW13G23   30.01S

$$
OHZ001>008-015>018-024>025-232000-
NORTHWEST OHIO

CITY           SKY/WX    TMP DP  RH WIND       PRES   REMARKS
WAUSEON*       FAIR      77  54  44 W16G22    29.98S
DEFIANCE       PTSUNNY   73  53  49 NW12      29.99
FINDLAY        MOSUNNY   78  53  41 W12       29.98F
TOLEDO EXPRESS PTSUNNY   76  52  43 W14G22    29.97
TOLEDO METCALF PTSUNNY   76  53  44 NW15G23   29.97F
LIMA           PTSUNNY   74  52  46 W13       30.01F

$$
AND FOR LAKE MICHIGAN COASTAL AND OPEN LAKE BUOY OBSERVATIONS

STATION/POSITION TEMP    WIND        PRES    VSBY  WAVE
                 AIR SEA DIR/SP/G                  HT/PER
                 (F)     (DEG/KT/KT) (MB)    (MI)  (FT/S)
CALUMET HARBOR    70      30/  7/ 11 1016.5F
MICHIGAN CITY     68     350/ 16/ 20   N/A
BURNS HARBOR      69      20/ 11/ 14 1017.6F
SAINT JOSEPH      69     330/ 12/ 14 1018.3
SOUTH LAKE BUOY   66 71  350/ 12/ 14 1017.1F         3/ 5
4 MI NW BRIDGMAN  68 74  360/ 12/ 16 1017.3          4/ 5
MICHIGAN CITY     68 74   10/ 12/ 17   N/A           4/ 6

$$
&&




USA.gov is the U.S. government's official web portal to all federal, state and local government web resources and services.